FW3073 Weather Reports


Display with metric or nautical units.
time (UTC)temp
F
wind
direction
speed
MPH
gust
MPH
rain 1hr
in
rain 24hr
in
rain mn
in
humidity
%
barometer
mb
20260903071003 56 0 0.0 0.0 0.00 0.00 0.00 99 1019.9
20260903070003 56 0 0.0 0.0 0.00 0.00 0.00 99 1019.9
20260903065003 56 0 0.0 0.0 0.00 0.00 0.00 99 1019.9
20260903064214 56 6 0.0 1.0 0.00 0.00 0.00 99 1019.9
20260903063003 55 6 0.0 1.0 0.00 0.00 0.00 99 1020.3
20260903062003 55 18 0.0 1.0 0.00 0.00 0.00 99 1020.3
20260903061003 55 0 0.0 0.0 0.00 0.00 0.00 99 1019.9
20260903060003 54 0 0.0 0.0 0.00 0.00 0.00 99 1019.9
20260903055003 54 0 0.0 0.0 0.00 0.00 0.00 99 1019.9
20260903054003 54 0 0.0 0.0 0.00 0.00 0.00 99 1019.3
20260903053003 54 0 0.0 0.0 0.00 0.00 0.00 99 1019.9
20260903052003 54 0 0.0 0.0 0.00 0.00 0.00 99 1019.9
20260903051003 54 0 0.0 0.0 0.00 0.00 0.00 99 1019.6
20260903050003 54 0 0.0 0.0 0.00 0.00 0.00 99 1019.9
20260903045003 54 0 0.0 0.0 0.00 0.00 0.00 99 1019.6
20260903044003 53 0 0.0 0.0 0.00 0.00 0.00 98 1019.9
20260903043003 53 0 0.0 0.0 0.00 0.00 0.00 98 1020.3
20260903042003 54 0 0.0 0.0 0.00 0.00 0.00 98 1020.3
20260903041003 54 0 0.0 0.0 0.00 0.00 0.00 98 1020.6
20260903040003 54 0 0.0 0.0 0.00 0.00 0.00 98 1020.6
20260903035003 54 0 0.0 0.0 0.00 0.00 0.00 97 1020.3
20260903034003 55 0 0.0 0.0 0.00 0.00 0.00 97 1020.3
20260903033003 55 0 0.0 0.0 0.00 0.00 0.00 97 1020.6
20260903032003 55 0 0.0 0.0 0.00 0.00 0.00 97 1020.6
20260903031003 55 0 0.0 0.0 0.00 0.00 0.00 97 1020.3
20260903030003 55 0 0.0 0.0 0.00 0.00 0.00 97 1020.3
20260903025003 55 0 0.0 0.0 0.00 0.00 0.00 97 1020.6
20260903024003 55 0 0.0 0.0 0.00 0.00 0.00 97 1020.6
20260903023003 55 0 0.0 0.0 0.00 0.00 0.00 96 1020.6
20260903022213 56 0 0.0 0.0 0.00 0.00 0.00 96 1020.6
20260903021003 55 0 0.0 0.0 0.00 0.00 0.00 96 1020.6
20260903020003 56 0 0.0 0.0 0.00 0.00 0.00 96 1021.0
20260903015003 56 0 0.0 0.0 0.00 0.00 0.00 96 1021.0
20260903014003 56 0 0.0 0.0 0.00 0.00 0.00 95 1021.0
20260903013214 56 21 0.0 1.0 0.00 0.00 0.00 95 1021.0
20260903012003 56 0 0.0 0.0 0.00 0.00 0.00 95 1021.0
20260903011003 56 0 0.0 0.0 0.00 0.00 0.00 94 1021.0
20260903010003 56 0 0.0 0.0 0.00 0.00 0.00 94 1021.0
20260903005003 56 0 0.0 0.0 0.00 0.00 0.00 92 1021.0
20260903004003 57 0 0.0 0.0 0.00 0.00 0.00 91 1021.0
20260903003003 57 22 0.0 1.0 0.00 0.00 0.00 90 1021.3
20260903002003 57 35 0.0 2.0 0.00 0.00 0.00 90 1021.0
20260903001003 58 0 0.0 0.0 0.00 0.00 0.00 89 1021.3
20260903000003 58 27 0.0 3.0 0.00 0.00 0.00 89 1021.0
20260902235003 58 10 0.0 1.0 0.00 0.00 0.00 90 1021.0
20260902234003 58 53 0.0 1.0 0.00 0.00 0.00 90 1020.6
20260902233003 59 59 0.0 1.0 0.00 0.00 0.00 89 1021.0
20260902232003 59 59 0.0 1.0 0.00 0.00 0.00 88 1021.0
20260902231003 60 75 0.0 2.0 0.00 0.00 0.00 85 1021.0
20260902230004 61 0 0.0 0.0 0.00 0.00 0.00 83 1021.3
20260902225003 62 79 0.0 2.0 0.00 0.00 0.00 81 1021.0
20260902224003 63 78 0.0 2.0 0.00 0.00 0.00 79 1021.0
20260902223003 64 74 1.0 3.0 0.00 0.00 0.00 78 1021.0
20260902222213 64 72 0.0 3.0 0.00 0.00 0.00 77 1021.0
20260902221213 65 93 0.0 1.0 0.00 0.00 0.00 75 1021.0
20260902220003 66 81 1.0 3.0 0.00 0.00 0.00 73 1021.0
20260902215213 66 81 0.0 3.0 0.00 0.00 0.00 71 1021.0
20260902214003 66 89 0.0 3.0 0.00 0.00 0.00 72 1021.3
20260902213003 67 95 0.0 3.0 0.00 0.00 0.00 69 1021.3
20260902212003 68 80 0.0 3.0 0.00 0.00 0.00 66 1021.0
20260902211003 69 68 0.0 2.0 0.00 0.00 0.00 62 1021.3
20260902210003 70 73 0.0 2.0 0.00 0.00 0.00 60 1021.3
20260902205003 70 97 0.0 2.0 0.00 0.00 0.00 58 1021.0
20260902204003 70 67 1.0 4.0 0.00 0.00 0.00 59 1021.3
20260902203003 71 78 0.0 3.0 0.00 0.00 0.00 57 1021.3
20260902202004 71 80 1.0 4.0 0.00 0.00 0.00 61 1021.0
20260902201003 71 62 1.0 6.0 0.00 0.00 0.00 62 1021.6
20260902200003 70 65 1.0 4.0 0.00 0.00 0.00 65 1021.3
20260902195003 70 81 1.0 3.0 0.00 0.00 0.00 61 1021.6
20260902194214 71 71 1.0 3.0 0.00 0.00 0.00 61 1021.3
20260902193003 71 90 1.0 4.0 0.00 0.00 0.00 62 1021.6
20260902192004 69 113 1.0 3.0 0.00 0.00 0.00 63 1021.6
20260902191003 70 111 1.0 3.0 0.00 0.00 0.00 65 1022.0
20260902190003 71 69 0.0 2.0 0.00 0.00 0.00 60 1022.0
20260902185003 70 78 1.0 3.0 0.00 0.00 0.00 60 1021.6
20260902184003 70 112 0.0 2.0 0.00 0.00 0.00 59 1022.0
20260902183003 69 161 0.0 2.0 0.00 0.00 0.00 63 1022.0
20260902182004 69 84 1.0 4.0 0.00 0.00 0.00 66 1022.0
20260902181003 70 77 1.0 3.0 0.00 0.00 0.00 60 1022.0
20260902180006 71 58 1.0 4.0 0.00 0.00 0.00 59 1022.0
20260902175003 71 86 1.0 4.0 0.00 0.00 0.00 60 1022.0
20260902174003 70 57 1.0 6.0 0.00 0.00 0.00 60 1022.0
20260902173213 70 47 1.0 3.0 0.00 0.00 0.00 63 1022.3
20260902172004 69 63 0.0 2.0 0.00 0.00 0.00 60 1022.0
20260902171003 69 70 1.0 4.0 0.00 0.00 0.00 65 1022.3
20260902170213 69 92 1.0 4.0 0.00 0.00 0.00 66 1022.0
20260902165003 69 86 2.0 7.0 0.00 0.00 0.00 67 1022.3
20260902164213 69 92 1.0 4.0 0.00 0.00 0.00 66 1022.3
20260902163003 68 82 1.0 4.0 0.00 0.00 0.00 64 1022.0
20260902162004 69 80 1.0 7.0 0.00 0.00 0.00 68 1022.0
20260902161003 69 59 1.0 7.0 0.00 0.00 0.00 67 1022.0
20260902160005 68 59 1.0 7.0 0.00 0.00 0.00 68 1022.0
20260902155003 68 73 1.0 6.0 0.00 0.00 0.00 66 1022.0
20260902154003 69 78 1.0 7.0 0.00 0.00 0.00 65 1022.0
20260902153212 70 74 1.0 3.0 0.00 0.00 0.00 63 1022.3
20260902152004 68 59 1.0 3.0 0.00 0.00 0.00 67 1022.0
20260902151003 70 67 1.0 6.0 0.00 0.00 0.00 64 1022.0
20260902150212 70 88 1.0 6.0 0.00 0.00 0.00 67 1022.0
20260902145003 67 66 1.0 4.0 0.00 0.00 0.00 65 1022.0
20260902144003 67 69 1.0 8.0 0.00 0.00 0.00 66 1022.0
20260902143003 70 92 1.0 7.0 0.00 0.00 0.00 62 1022.0
20260902142214 70 33 1.0 4.0 0.00 0.00 0.00 64 1022.0
20260902141003 68 80 1.0 3.0 0.00 0.00 0.00 67 1022.7
20260902140004 66 83 1.0 4.0 0.00 0.00 0.00 74 1022.7
20260902135003 67 88 1.0 4.0 0.00 0.00 0.00 71 1022.7
20260902134003 65 81 1.0 4.0 0.00 0.00 0.00 75 1022.7
20260902133003 65 72 1.0 4.0 0.00 0.00 0.00 77 1022.7
20260902132003 65 79 1.0 3.0 0.00 0.00 0.00 74 1022.7
20260902131214 65 89 1.0 3.0 0.00 0.00 0.00 75 1023.0
20260902130004 65 89 1.0 3.0 0.00 0.00 0.00 74 1023.0
20260902125003 65 87 0.0 2.0 0.00 0.00 0.00 78 1023.0
20260902124003 64 91 1.0 3.0 0.00 0.00 0.00 76 1022.7
20260902123213 63 86 1.0 1.0 0.00 0.00 0.00 80 1023.0
20260902122003 62 88 1.0 2.0 0.00 0.00 0.00 83 1023.0
20260902121003 61 92 1.0 2.0 0.00 0.00 0.00 85 1023.0
20260902120003 60 102 0.0 1.0 0.00 0.00 0.00 86 1022.7
20260902115213 58 0 0.0 0.0 0.00 0.00 0.00 92 1023.0
20260902114003 56 0 0.0 0.0 0.00 0.00 0.00 99 1023.0
20260902113213 54 0 0.0 0.0 0.00 0.00 0.00 99 1023.0
20260902112213 53 0 0.0 0.0 0.00 0.00 0.00 99 1022.7
20260902111003 52 0 0.0 0.0 0.00 0.00 0.00 99 1023.0
20260902110005 51 0 0.0 0.0 0.00 0.00 0.00 99 1022.7
20260902105213 50 0 0.0 0.0 0.00 0.00 0.00 99 1022.7
20260902104003 49 0 0.0 0.0 0.00 0.00 0.00 99 1022.7
20260902103003 49 0 0.0 0.0 0.00 0.00 0.00 99 1022.7
20260902102213 49 0 0.0 0.0 0.00 0.00 0.00 99 1022.7
20260902101003 49 0 0.0 0.0 0.00 0.00 0.00 99 1022.7
20260902100003 49 0 0.0 0.0 0.00 0.00 0.00 99 1022.7
20260902095003 49 0 0.0 0.0 0.00 0.00 0.00 99 1022.3
20260902094003 48 0 0.0 0.0 0.00 0.00 0.00 99 1022.7
20260902093214 48 0 0.0 0.0 0.00 0.00 0.00 99 1022.3
20260902092003 48 0 0.0 0.0 0.00 0.00 0.00 99 1022.3
20260902091003 49 0 0.0 0.0 0.00 0.00 0.00 98 1022.3
20260902090004 49 0 0.0 0.0 0.00 0.00 0.00 99 1022.0
20260902085003 49 0 0.0 0.0 0.00 0.00 0.00 99 1022.0
20260902084004 49 0 0.0 0.0 0.00 0.00 0.00 99 1022.0
20260902083003 49 0 0.0 0.0 0.00 0.00 0.00 99 1022.0
20260902082004 48 0 0.0 0.0 0.00 0.00 0.00 99 1022.0
20260902081214 48 0 0.0 0.0 0.00 0.00 0.00 98 1022.0
20260902080004 48 0 0.0 0.0 0.00 0.00 0.00 98 1022.0
20260902075003 48 0 0.0 0.0 0.00 0.00 0.00 98 1021.6
20260902074003 48 0 0.0 0.0 0.00 0.00 0.00 98 1021.6
20260902073213 48 0 0.0 0.0 0.00 0.00 0.00 98 1021.6
20260902072004 49 0 0.0 0.0 0.00 0.00 0.00 98 1021.3